Location: Portland Traction Trail
(45.4587°N, 122.6457°W)
Time: 06:12:10
(UTC+00:00)

Daily predictions for brighter satellites

Satellite Brightness Start Highest point End
(mag) Time Altitude Azimuth Time Altitude Azimuth Time Altitude Azimuth
Cosmos 1844 Rocket 4.4 12:01:48 10° WNW 12:04:30 14° W 12:07:11 10° SW
CZ-2D R/B 3.5 12:00:31 10° N 12:04:32 23° WNW 12:08:31 10° WSW
NOSS 2-2 (D) 3.3 12:01:28 10° SSW 12:04:52 54° SE 12:07:52 10° NE
